Year,Month,Day,Hour,Minute,Value (Times are PST for temperature in C)
2009,04,27,00,00,5.40
2009,04,27,00,01,5.40
2009,04,27,00,02,5.40
2009,04,27,00,03,5.40
2009,04,27,00,04,5.40
2009,04,27,00,05,5.30
2009,04,27,00,06,5.30
2009,04,27,00,07,5.30
2009,04,27,00,08,5.30
2009,04,27,00,09,5.30
2009,04,27,00,10,5.30
2009,04,27,00,11,5.30
2009,04,27,00,12,5.30
2009,04,27,00,13,5.30
2009,04,27,00,14,5.30
2009,04,27,00,15,5.30
2009,04,27,00,16,5.30
2009,04,27,00,17,5.30
2009,04,27,00,18,5.20
2009,04,27,00,19,5.20
2009,04,27,00,20,5.20
2009,04,27,00,21,5.20
2009,04,27,00,22,5.20
2009,04,27,00,23,5.20
2009,04,27,00,24,5.20
2009,04,27,00,25,5.20
2009,04,27,00,26,5.10
2009,04,27,00,27,5.10
2009,04,27,00,28,5.10
2009,04,27,00,29,5.10
2009,04,27,00,30,5.10
2009,04,27,00,31,5.10
2009,04,27,00,32,5.10
2009,04,27,00,33,5.10
2009,04,27,00,34,5.10
2009,04,27,00,35,5.10
2009,04,27,00,36,5.10
2009,04,27,00,37,5.10
2009,04,27,00,38,5.10
2009,04,27,00,39,5.10
2009,04,27,00,40,5.10
2009,04,27,00,41,5.10
2009,04,27,00,42,5.10
2009,04,27,00,43,5.10
2009,04,27,00,44,5.10
2009,04,27,00,45,5.00
2009,04,27,00,46,5.00
2009,04,27,00,47,5.00
2009,04,27,00,48,5.00
2009,04,27,00,49,5.00
2009,04,27,00,50,5.00
2009,04,27,00,51,5.00
2009,04,27,00,52,5.00
2009,04,27,00,53,4.90
2009,04,27,00,54,4.90
2009,04,27,00,55,4.90
2009,04,27,00,56,4.90
2009,04,27,00,57,4.90
2009,04,27,00,58,4.90
2009,04,27,00,59,4.90
2009,04,27,01,00,4.90
2009,04,27,01,01,4.80
2009,04,27,01,02,4.80
2009,04,27,01,03,4.80
2009,04,27,01,04,4.80
2009,04,27,01,05,4.90
2009,04,27,01,06,4.90
2009,04,27,01,07,4.90
2009,04,27,01,08,4.90
2009,04,27,01,09,4.80
2009,04,27,01,10,4.80
2009,04,27,01,11,4.80
2009,04,27,01,12,4.80
2009,04,27,01,13,4.80
2009,04,27,01,14,4.80
2009,04,27,01,15,4.80
2009,04,27,01,16,4.80
2009,04,27,01,17,4.80
2009,04,27,01,18,4.80
2009,04,27,01,19,4.80
2009,04,27,01,20,4.80
2009,04,27,01,21,4.80
2009,04,27,01,22,4.80
2009,04,27,01,23,4.70
2009,04,27,01,24,4.70
2009,04,27,01,25,4.70
2009,04,27,01,26,4.70
2009,04,27,01,27,4.70
2009,04,27,01,28,4.70
2009,04,27,01,29,4.70
2009,04,27,01,30,4.70
2009,04,27,01,31,4.70
2009,04,27,01,32,4.70
2009,04,27,01,33,4.70
2009,04,27,01,34,4.70
2009,04,27,01,35,4.70
2009,04,27,01,36,4.60
2009,04,27,01,37,4.60
2009,04,27,01,38,4.60
2009,04,27,01,39,4.60
2009,04,27,01,40,4.60
2009,04,27,01,41,4.60
2009,04,27,01,42,4.60
2009,04,27,01,43,4.60
2009,04,27,01,44,4.60
2009,04,27,01,45,4.60
2009,04,27,01,46,4.60
2009,04,27,01,47,4.60
2009,04,27,01,48,4.60
2009,04,27,01,49,4.60
2009,04,27,01,50,4.60
2009,04,27,01,51,4.60
2009,04,27,01,52,4.70
2009,04,27,01,53,4.70
2009,04,27,01,54,4.70
2009,04,27,01,55,4.70
2009,04,27,01,56,4.70
2009,04,27,01,57,4.80
2009,04,27,01,58,4.80
2009,04,27,01,59,4.90
2009,04,27,02,00,4.90
2009,04,27,02,01,5.00
2009,04,27,02,02,5.10
2009,04,27,02,03,5.20
2009,04,27,02,04,5.30
2009,04,27,02,05,5.50
2009,04,27,02,06,5.60
2009,04,27,02,07,5.70
2009,04,27,02,08,5.80
2009,04,27,02,09,5.90
2009,04,27,02,10,6.00
2009,04,27,02,11,6.00
2009,04,27,02,12,6.10
2009,04,27,02,13,6.20
2009,04,27,02,14,6.20
2009,04,27,02,15,6.30
2009,04,27,02,16,6.30
2009,04,27,02,17,6.40
2009,04,27,02,18,6.40
2009,04,27,02,19,6.40
2009,04,27,02,20,6.40
2009,04,27,02,21,6.50
2009,04,27,02,22,6.50
2009,04,27,02,23,6.60
2009,04,27,02,24,6.60
2009,04,27,02,25,6.60
2009,04,27,02,26,6.60
2009,04,27,02,27,6.70
2009,04,27,02,28,6.70
2009,04,27,02,29,6.70
2009,04,27,02,30,6.70
2009,04,27,02,31,6.80
2009,04,27,02,32,6.80
2009,04,27,02,33,6.80
2009,04,27,02,34,6.80
2009,04,27,02,35,6.90
2009,04,27,02,36,6.90
2009,04,27,02,37,7.00
2009,04,27,02,38,7.00
2009,04,27,02,39,7.00
2009,04,27,02,40,7.10
2009,04,27,02,41,7.10
2009,04,27,02,42,7.10
2009,04,27,02,43,7.10
2009,04,27,02,44,7.10
2009,04,27,02,45,7.10
2009,04,27,02,46,7.10
2009,04,27,02,47,7.10
2009,04,27,02,48,7.20
2009,04,27,02,49,7.20
2009,04,27,02,50,7.20
2009,04,27,02,51,7.20
2009,04,27,02,52,7.20
2009,04,27,02,53,7.20
2009,04,27,02,54,7.20
2009,04,27,02,55,7.20
2009,04,27,02,56,7.30
2009,04,27,02,57,7.20
2009,04,27,02,58,7.30
2009,04,27,02,59,7.30
2009,04,27,03,00,7.30
2009,04,27,03,01,7.30
2009,04,27,03,02,7.30
2009,04,27,03,03,7.20
2009,04,27,03,04,7.20
2009,04,27,03,05,7.20
2009,04,27,03,06,7.20
2009,04,27,03,07,7.20
2009,04,27,03,08,7.20
2009,04,27,03,09,7.20
2009,04,27,03,10,7.20
2009,04,27,03,11,7.20
2009,04,27,03,12,7.20
2009,04,27,03,13,7.20
2009,04,27,03,14,7.30
2009,04,27,03,15,7.30
2009,04,27,03,16,7.30
2009,04,27,03,17,7.30
2009,04,27,03,18,7.30
2009,04,27,03,19,7.30
2009,04,27,03,20,7.30
2009,04,27,03,21,7.20
2009,04,27,03,22,7.20
2009,04,27,03,23,7.20
2009,04,27,03,24,7.20
2009,04,27,03,25,7.20
2009,04,27,03,26,7.20
2009,04,27,03,27,7.30
2009,04,27,03,28,7.30
2009,04,27,03,29,7.30
2009,04,27,03,30,7.30
2009,04,27,03,31,7.30
2009,04,27,03,32,7.30
2009,04,27,03,33,7.30
2009,04,27,03,34,7.30
2009,04,27,03,35,7.30
2009,04,27,03,36,7.30
2009,04,27,03,37,7.30
2009,04,27,03,38,7.20
2009,04,27,03,39,7.20
2009,04,27,03,40,7.20
2009,04,27,03,41,7.20
2009,04,27,03,42,7.20
2009,04,27,03,43,7.20
2009,04,27,03,44,7.20
2009,04,27,03,45,7.20
2009,04,27,03,46,7.20
2009,04,27,03,47,7.20
2009,04,27,03,48,7.20
2009,04,27,03,49,7.20
2009,04,27,03,50,7.20
2009,04,27,03,51,7.20
2009,04,27,03,52,7.20
2009,04,27,03,53,7.20
2009,04,27,03,54,7.20
2009,04,27,03,55,7.20
2009,04,27,03,56,7.20
2009,04,27,03,57,7.20
2009,04,27,03,58,7.30
2009,04,27,03,59,7.30
2009,04,27,04,00,7.40
2009,04,27,04,01,7.40
2009,04,27,04,02,7.40
2009,04,27,04,03,7.40
2009,04,27,04,04,7.40
2009,04,27,04,05,7.40
2009,04,27,04,06,7.40
2009,04,27,04,07,7.40
2009,04,27,04,08,7.40
2009,04,27,04,09,7.40
2009,04,27,04,10,7.50
2009,04,27,04,11,7.50
2009,04,27,04,12,7.50
2009,04,27,04,13,7.60
2009,04,27,04,14,7.60
2009,04,27,04,15,7.60
2009,04,27,04,16,7.60
2009,04,27,04,17,7.50
2009,04,27,04,18,7.50
2009,04,27,04,19,7.50
2009,04,27,04,20,7.50
2009,04,27,04,21,7.50
2009,04,27,04,22,7.50
2009,04,27,04,23,7.60
2009,04,27,04,24,7.60
2009,04,27,04,25,7.70
2009,04,27,04,26,7.70
2009,04,27,04,27,7.70
2009,04,27,04,28,7.70
2009,04,27,04,29,7.80
2009,04,27,04,30,7.90
2009,04,27,04,31,7.90
2009,04,27,04,32,7.90
2009,04,27,04,33,7.90
2009,04,27,04,34,7.90
2009,04,27,04,35,7.90
2009,04,27,04,36,7.90
2009,04,27,04,37,7.90
2009,04,27,04,38,7.80
2009,04,27,04,39,7.80
2009,04,27,04,40,7.80
2009,04,27,04,41,7.70
2009,04,27,04,42,7.70
2009,04,27,04,43,7.70
2009,04,27,04,44,7.70
2009,04,27,04,45,7.70
2009,04,27,04,46,7.70
2009,04,27,04,47,7.70
2009,04,27,04,48,7.70
2009,04,27,04,49,7.70
2009,04,27,04,50,7.60
2009,04,27,04,51,7.60
2009,04,27,04,52,7.60
2009,04,27,04,53,7.60
2009,04,27,04,54,7.60
2009,04,27,04,55,7.70
2009,04,27,04,56,7.80
2009,04,27,04,57,7.80
2009,04,27,04,58,7.80
2009,04,27,04,59,7.80
2009,04,27,05,00,7.80
2009,04,27,05,01,7.80
2009,04,27,05,02,7.80
2009,04,27,05,03,7.90
2009,04,27,05,04,7.90
2009,04,27,05,05,7.90
2009,04,27,05,06,7.90
2009,04,27,05,07,7.90
2009,04,27,05,08,7.90
2009,04,27,05,09,7.90
2009,04,27,05,10,7.90
2009,04,27,05,11,7.80
2009,04,27,05,12,7.80
2009,04,27,05,13,7.80
2009,04,27,05,14,7.80
2009,04,27,05,15,7.80
2009,04,27,05,16,7.90
2009,04,27,05,17,7.90
2009,04,27,05,18,7.90
2009,04,27,05,19,7.90
2009,04,27,05,20,7.90
2009,04,27,05,21,7.90
2009,04,27,05,22,8.00
2009,04,27,05,23,8.00
2009,04,27,05,24,8.10
2009,04,27,05,25,8.20
2009,04,27,05,26,8.20
2009,04,27,05,27,8.20
2009,04,27,05,28,8.20
2009,04,27,05,29,8.20
2009,04,27,05,30,8.20
2009,04,27,05,31,8.20
2009,04,27,05,32,8.20
2009,04,27,05,33,8.10
2009,04,27,05,34,8.10
2009,04,27,05,35,8.20
2009,04,27,05,36,8.20
2009,04,27,05,37,8.20
2009,04,27,05,38,8.20
2009,04,27,05,39,8.30
2009,04,27,05,40,8.30
2009,04,27,05,41,8.20
2009,04,27,05,42,8.20
2009,04,27,05,43,8.20
2009,04,27,05,44,8.20
2009,04,27,05,45,8.20
2009,04,27,05,46,8.20
2009,04,27,05,47,8.30
2009,04,27,05,48,8.30
2009,04,27,05,49,8.30
2009,04,27,05,50,8.30
2009,04,27,05,51,8.30
2009,04,27,05,52,8.30
2009,04,27,05,53,8.40
2009,04,27,05,54,8.40
2009,04,27,05,55,8.40
2009,04,27,05,56,8.40
2009,04,27,05,57,8.30
2009,04,27,05,58,8.30
2009,04,27,05,59,8.30
2009,04,27,06,00,8.30
2009,04,27,06,01,8.30
2009,04,27,06,02,8.30
2009,04,27,06,03,8.30
2009,04,27,06,04,8.30
2009,04,27,06,05,8.40
2009,04,27,06,06,8.40
2009,04,27,06,07,8.50
2009,04,27,06,08,8.50
2009,04,27,06,09,8.60
2009,04,27,06,10,8.60
2009,04,27,06,11,8.70
2009,04,27,06,12,8.70
2009,04,27,06,13,8.70
2009,04,27,06,14,8.70
2009,04,27,06,15,8.70
2009,04,27,06,16,8.70
2009,04,27,06,17,8.70
2009,04,27,06,18,8.60
2009,04,27,06,19,8.60
2009,04,27,06,20,8.60
2009,04,27,06,21,8.60
2009,04,27,06,22,8.60
2009,04,27,06,23,8.60
2009,04,27,06,24,8.60
2009,04,27,06,25,8.60
2009,04,27,06,26,8.60
2009,04,27,06,27,8.60
2009,04,27,06,28,8.60
2009,04,27,06,29,8.50
2009,04,27,06,30,8.50
2009,04,27,06,31,8.50
2009,04,27,06,32,8.50
2009,04,27,06,33,8.40
2009,04,27,06,34,8.40
2009,04,27,06,35,8.40
2009,04,27,06,36,8.30
2009,04,27,06,37,8.30
2009,04,27,06,38,8.30
2009,04,27,06,39,8.20
2009,04,27,06,40,8.20
2009,04,27,06,41,8.20
2009,04,27,06,42,8.20
2009,04,27,06,43,8.20
2009,04,27,06,44,8.30
2009,04,27,06,45,8.30
2009,04,27,06,46,8.30
2009,04,27,06,47,8.30
2009,04,27,06,48,8.40
2009,04,27,06,49,8.40
2009,04,27,06,50,8.40
2009,04,27,06,51,8.50
2009,04,27,06,52,8.50
2009,04,27,06,53,8.60
2009,04,27,06,54,8.60
2009,04,27,06,55,8.60
2009,04,27,06,56,8.70
2009,04,27,06,57,8.70
2009,04,27,06,58,8.70
2009,04,27,06,59,8.70
2009,04,27,07,00,8.70
2009,04,27,07,01,8.80
2009,04,27,07,02,8.80
2009,04,27,07,03,8.80
2009,04,27,07,04,8.80
2009,04,27,07,05,8.90
2009,04,27,07,06,8.90
2009,04,27,07,07,8.90
2009,04,27,07,08,9.00
2009,04,27,07,09,9.00
2009,04,27,07,10,9.10
2009,04,27,07,11,9.10
2009,04,27,07,12,9.10
2009,04,27,07,13,9.20
2009,04,27,07,14,9.20
2009,04,27,07,15,9.20
2009,04,27,07,16,9.20
2009,04,27,07,17,9.30
2009,04,27,07,18,9.30
2009,04,27,07,19,9.30
2009,04,27,07,20,9.30
2009,04,27,07,21,9.30
2009,04,27,07,22,9.40
2009,04,27,07,23,9.40
2009,04,27,07,24,9.40
2009,04,27,07,25,9.40
2009,04,27,07,26,9.40
2009,04,27,07,27,9.40
2009,04,27,07,28,9.40
2009,04,27,07,29,9.40
2009,04,27,07,30,9.50
2009,04,27,07,31,9.50
2009,04,27,07,32,9.60
2009,04,27,07,33,9.60
2009,04,27,07,34,9.60
2009,04,27,07,35,9.60
2009,04,27,07,36,9.60
2009,04,27,07,37,9.60
2009,04,27,07,38,9.60
2009,04,27,07,39,9.70
2009,04,27,07,40,9.70
2009,04,27,07,41,9.70
2009,04,27,07,42,9.70
2009,04,27,07,43,9.70
2009,04,27,07,44,9.70
2009,04,27,07,45,9.80
2009,04,27,07,46,9.80
2009,04,27,07,47,9.90
2009,04,27,07,48,9.90
2009,04,27,07,49,10.00
2009,04,27,07,50,10.00
2009,04,27,07,51,10.10
2009,04,27,07,52,10.10
2009,04,27,07,53,10.10
2009,04,27,07,54,10.20
2009,04,27,07,55,10.20
2009,04,27,07,56,10.20
2009,04,27,07,57,10.30
2009,04,27,07,58,10.30
2009,04,27,07,59,10.30
2009,04,27,08,00,10.30
2009,04,27,08,01,10.30
2009,04,27,08,02,10.40
2009,04,27,08,03,10.40
2009,04,27,08,04,10.40
2009,04,27,08,05,10.50
2009,04,27,08,06,10.50
2009,04,27,08,07,10.60
2009,04,27,08,08,10.60
2009,04,27,08,09,10.60
2009,04,27,08,10,10.60
2009,04,27,08,11,10.60
2009,04,27,08,12,10.70
2009,04,27,08,13,10.70
2009,04,27,08,14,10.70
2009,04,27,08,15,10.80
2009,04,27,08,16,10.80
2009,04,27,08,17,10.80
2009,04,27,08,18,10.80
2009,04,27,08,19,10.90
2009,04,27,08,20,10.90
2009,04,27,08,21,11.00
2009,04,27,08,22,11.00
2009,04,27,08,23,11.10
2009,04,27,08,24,11.10
2009,04,27,08,25,11.10
2009,04,27,08,26,11.20
2009,04,27,08,27,11.20
2009,04,27,08,28,11.20
2009,04,27,08,29,11.30
2009,04,27,08,30,11.30
2009,04,27,08,31,11.30
2009,04,27,08,32,11.30
2009,04,27,08,33,11.30
2009,04,27,08,34,11.30
2009,04,27,08,35,11.30
2009,04,27,08,36,11.30
2009,04,27,08,37,11.30
2009,04,27,08,38,11.30
2009,04,27,08,39,11.30
2009,04,27,08,40,11.30
2009,04,27,08,41,11.40
2009,04,27,08,42,11.40
2009,04,27,08,43,11.40
2009,04,27,08,44,11.50
2009,04,27,08,45,11.50
2009,04,27,08,46,11.60
2009,04,27,08,47,11.60
2009,04,27,08,48,11.60
2009,04,27,08,49,11.60
2009,04,27,08,50,11.60
2009,04,27,08,51,11.60
2009,04,27,08,52,11.60
2009,04,27,08,53,11.70
2009,04,27,08,54,11.70
2009,04,27,08,55,11.80
2009,04,27,08,56,11.80
2009,04,27,08,57,11.80
2009,04,27,08,58,11.80
2009,04,27,08,59,11.80
2009,04,27,09,00,11.80
2009,04,27,09,01,11.90
2009,04,27,09,02,11.90
2009,04,27,09,03,11.90
2009,04,27,09,04,11.90
2009,04,27,09,05,11.80
2009,04,27,09,06,11.80
2009,04,27,09,07,11.80
2009,04,27,09,08,11.90
2009,04,27,09,09,11.90
2009,04,27,09,10,11.90
2009,04,27,09,11,12.00
2009,04,27,09,12,12.00
2009,04,27,09,13,12.10
2009,04,27,09,14,12.10
2009,04,27,09,15,12.20
2009,04,27,09,16,12.20
2009,04,27,09,17,12.20
2009,04,27,09,18,12.20
2009,04,27,09,19,12.20
2009,04,27,09,20,12.30
2009,04,27,09,21,12.30
2009,04,27,09,22,12.30
2009,04,27,09,23,12.30
2009,04,27,09,24,12.40
2009,04,27,09,25,12.40
2009,04,27,09,26,12.40
2009,04,27,09,27,12.40
2009,04,27,09,28,12.40
2009,04,27,09,29,12.40
2009,04,27,09,30,12.40
2009,04,27,09,31,12.40
2009,04,27,09,32,12.40
2009,04,27,09,33,12.40
2009,04,27,09,34,12.50
2009,04,27,09,35,12.60
2009,04,27,09,36,12.70
2009,04,27,09,37,12.70
2009,04,27,09,38,12.80
2009,04,27,09,39,12.80
2009,04,27,09,40,12.80
2009,04,27,09,41,12.90
2009,04,27,09,42,13.00
2009,04,27,09,43,13.10
2009,04,27,09,44,13.20
2009,04,27,09,45,13.40
2009,04,27,09,46,13.50
2009,04,27,09,47,13.60
2009,04,27,09,48,13.60
2009,04,27,09,49,13.60
2009,04,27,09,50,13.70
2009,04,27,09,51,13.80
2009,04,27,09,52,13.80
2009,04,27,09,53,13.80
2009,04,27,09,54,13.80
2009,04,27,09,55,13.90
2009,04,27,09,56,13.90
2009,04,27,09,57,13.90
2009,04,27,09,58,13.80
2009,04,27,09,59,13.80
2009,04,27,10,00,13.70
2009,04,27,10,01,13.50
2009,04,27,10,02,13.40
2009,04,27,10,03,13.30
2009,04,27,10,04,13.30
2009,04,27,10,05,13.30
2009,04,27,10,06,13.30
2009,04,27,10,07,13.30
2009,04,27,10,08,13.40
2009,04,27,10,09,13.40
2009,04,27,10,10,13.50
2009,04,27,10,11,13.50
2009,04,27,10,12,13.60
2009,04,27,10,13,13.70
2009,04,27,10,14,13.80
2009,04,27,10,15,13.90
2009,04,27,10,16,13.90
2009,04,27,10,17,13.90
2009,04,27,10,18,13.90
2009,04,27,10,19,14.00
2009,04,27,10,20,14.10
2009,04,27,10,21,14.20
2009,04,27,10,22,14.30
2009,04,27,10,23,14.40
2009,04,27,10,24,14.50
2009,04,27,10,25,14.50
2009,04,27,10,26,14.40
2009,04,27,10,27,14.30
2009,04,27,10,28,14.30
2009,04,27,10,29,14.30
2009,04,27,10,30,14.30
2009,04,27,10,31,14.40
2009,04,27,10,32,14.60
2009,04,27,10,33,14.70
2009,04,27,10,34,14.80
2009,04,27,10,35,14.90
2009,04,27,10,36,15.00
2009,04,27,10,37,15.00
2009,04,27,10,38,15.20
2009,04,27,10,39,15.20
2009,04,27,10,40,15.00
2009,04,27,10,41,15.00
2009,04,27,10,42,14.80
2009,04,27,10,43,14.60
2009,04,27,10,44,14.50
2009,04,27,10,45,14.40
2009,04,27,10,46,14.40
2009,04,27,10,47,14.50
2009,04,27,10,48,14.60
2009,04,27,10,49,14.80
2009,04,27,10,50,15.00
2009,04,27,10,51,15.00
2009,04,27,10,52,15.20
2009,04,27,10,53,15.20
2009,04,27,10,54,15.00
2009,04,27,10,55,15.00
2009,04,27,10,56,15.00
2009,04,27,10,57,15.00
2009,04,27,10,58,15.00
2009,04,27,10,59,15.00
2009,04,27,11,00,14.90
2009,04,27,11,01,14.80
2009,04,27,11,02,14.70
2009,04,27,11,03,14.80
2009,04,27,11,04,14.90
2009,04,27,11,05,15.00
2009,04,27,11,06,15.00
2009,04,27,11,07,15.00
2009,04,27,11,08,15.00
2009,04,27,11,09,15.00
2009,04,27,11,10,15.10
2009,04,27,11,11,15.10
2009,04,27,11,12,15.00
2009,04,27,11,13,15.00
2009,04,27,11,14,15.00
2009,04,27,11,15,15.00
2009,04,27,11,16,15.00
2009,04,27,11,17,15.00
2009,04,27,11,18,15.00
2009,04,27,11,19,15.00
2009,04,27,11,20,15.00
2009,04,27,11,21,15.00
2009,04,27,11,22,15.00
2009,04,27,11,23,15.20
2009,04,27,11,24,15.30
2009,04,27,11,25,15.40
2009,04,27,11,26,15.60
2009,04,27,11,27,15.60
2009,04,27,11,28,15.70
2009,04,27,11,29,15.80
2009,04,27,11,30,15.80
2009,04,27,11,31,15.80
2009,04,27,11,32,15.70
2009,04,27,11,33,15.70
2009,04,27,11,34,15.60
2009,04,27,11,35,15.60
2009,04,27,11,36,15.70
2009,04,27,11,37,15.70
2009,04,27,11,38,15.70
2009,04,27,11,39,15.80
2009,04,27,11,40,15.80
2009,04,27,11,41,16.00
2009,04,27,11,42,16.10
2009,04,27,11,43,16.30
2009,04,27,11,44,16.50
2009,04,27,11,45,16.60
2009,04,27,11,46,16.80
2009,04,27,11,47,16.90
2009,04,27,11,48,17.00
2009,04,27,11,49,17.10
2009,04,27,11,50,17.10
2009,04,27,11,51,17.10
2009,04,27,11,52,17.10
2009,04,27,11,53,17.10
2009,04,27,11,54,17.10
2009,04,27,11,55,16.90
2009,04,27,11,56,16.70
2009,04,27,11,57,16.60
2009,04,27,11,58,16.60
2009,04,27,11,59,16.70
2009,04,27,12,00,16.70
2009,04,27,12,01,16.70
2009,04,27,12,02,16.70
2009,04,27,12,03,16.70
2009,04,27,12,04,16.70
2009,04,27,12,05,16.80
2009,04,27,12,06,16.70
2009,04,27,12,07,16.70
2009,04,27,12,08,16.80
2009,04,27,12,09,16.80
2009,04,27,12,10,17.00
2009,04,27,12,11,17.10
2009,04,27,12,12,17.10
2009,04,27,12,13,17.10
2009,04,27,12,14,17.10
2009,04,27,12,15,17.00
2009,04,27,12,16,17.00
2009,04,27,12,17,17.10
2009,04,27,12,18,17.30
2009,04,27,12,19,17.50
2009,04,27,12,20,17.60
2009,04,27,12,21,17.70
2009,04,27,12,22,17.70
2009,04,27,12,23,17.80
2009,04,27,12,24,17.90
2009,04,27,12,25,17.90
2009,04,27,12,26,18.00
2009,04,27,12,27,18.10
2009,04,27,12,28,18.10
2009,04,27,12,29,18.10
2009,04,27,12,30,17.90
2009,04,27,12,31,17.80
2009,04,27,12,32,17.60
2009,04,27,12,33,17.50
2009,04,27,12,34,17.40
2009,04,27,12,35,17.40
2009,04,27,12,36,17.20
2009,04,27,12,37,17.00
2009,04,27,12,38,16.80
2009,04,27,12,39,16.80
2009,04,27,12,40,16.70
2009,04,27,12,41,16.70
2009,04,27,12,42,16.80
2009,04,27,12,43,16.80
2009,04,27,12,44,16.80
2009,04,27,12,45,16.90
2009,04,27,12,46,17.00
2009,04,27,12,47,17.10
2009,04,27,12,48,17.30
2009,04,27,12,49,17.40
2009,04,27,12,50,17.40
2009,04,27,12,51,17.50
2009,04,27,12,52,17.50
2009,04,27,12,53,17.50
2009,04,27,12,54,17.50
2009,04,27,12,55,17.40
2009,04,27,12,56,17.30
2009,04,27,12,57,17.10
2009,04,27,12,58,17.00
2009,04,27,12,59,17.00
2009,04,27,13,00,17.00
2009,04,27,13,01,17.10
2009,04,27,13,02,17.20
2009,04,27,13,03,17.20
2009,04,27,13,04,17.30
2009,04,27,13,05,17.30
2009,04,27,13,06,17.40
2009,04,27,13,07,17.50
2009,04,27,13,08,17.50
2009,04,27,13,09,17.50
2009,04,27,13,10,17.40
2009,04,27,13,11,17.40
2009,04,27,13,12,17.40
2009,04,27,13,13,17.20
2009,04,27,13,14,17.00
2009,04,27,13,15,17.00
2009,04,27,13,16,17.00
2009,04,27,13,17,17.10
2009,04,27,13,18,17.10
2009,04,27,13,19,17.10
2009,04,27,13,20,17.30
2009,04,27,13,21,17.40
2009,04,27,13,22,17.50
2009,04,27,13,23,17.60
2009,04,27,13,24,17.50
2009,04,27,13,25,17.50
2009,04,27,13,26,17.40
2009,04,27,13,27,17.30
2009,04,27,13,28,17.40
2009,04,27,13,29,17.50
2009,04,27,13,30,17.60
2009,04,27,13,31,17.70
2009,04,27,13,32,17.60
2009,04,27,13,33,17.60
2009,04,27,13,34,17.50
2009,04,27,13,35,17.40
2009,04,27,13,36,17.20
2009,04,27,13,37,17.10
2009,04,27,13,38,17.10
2009,04,27,13,39,17.10
2009,04,27,13,40,17.20
2009,04,27,13,41,17.30
2009,04,27,13,42,17.30
2009,04,27,13,43,17.30
2009,04,27,13,44,17.30
2009,04,27,13,45,17.20
2009,04,27,13,46,17.10
2009,04,27,13,47,17.00
2009,04,27,13,48,16.80
2009,04,27,13,49,16.80
2009,04,27,13,50,16.90
2009,04,27,13,51,16.90
2009,04,27,13,52,16.80
2009,04,27,13,53,16.80
2009,04,27,13,54,16.80
2009,04,27,13,55,17.00
2009,04,27,13,56,17.10
2009,04,27,13,57,17.10
2009,04,27,13,58,17.20
2009,04,27,13,59,17.30
2009,04,27,14,00,17.50
2009,04,27,14,01,17.60
2009,04,27,14,02,17.70
2009,04,27,14,03,17.90
2009,04,27,14,04,18.00
2009,04,27,14,05,18.10
2009,04,27,14,06,18.20
2009,04,27,14,07,18.10
2009,04,27,14,08,18.10
2009,04,27,14,09,18.00
2009,04,27,14,10,17.80
2009,04,27,14,11,17.70
2009,04,27,14,12,17.70
2009,04,27,14,13,17.70
2009,04,27,14,14,17.90
2009,04,27,14,15,18.00
2009,04,27,14,16,18.10
2009,04,27,14,17,18.20
2009,04,27,14,18,18.30
2009,04,27,14,19,18.40
2009,04,27,14,20,18.50
2009,04,27,14,21,18.60
2009,04,27,14,22,18.70
2009,04,27,14,23,18.80
2009,04,27,14,24,18.90
2009,04,27,14,25,19.00
2009,04,27,14,26,19.10
2009,04,27,14,27,19.10
2009,04,27,14,28,19.10
2009,04,27,14,29,19.20
2009,04,27,14,30,19.30
2009,04,27,14,31,19.30
2009,04,27,14,32,19.30
2009,04,27,14,33,19.30
2009,04,27,14,34,19.10
2009,04,27,14,35,18.80
2009,04,27,14,36,18.40
2009,04,27,14,37,18.00
2009,04,27,14,38,17.80
2009,04,27,14,39,17.60
2009,04,27,14,40,17.50
2009,04,27,14,41,17.50
2009,04,27,14,42,17.50
2009,04,27,14,43,17.60
2009,04,27,14,44,17.50
2009,04,27,14,45,17.50
2009,04,27,14,46,17.50
2009,04,27,14,47,17.50
2009,04,27,14,48,17.50
2009,04,27,14,49,17.60
2009,04,27,14,50,17.70
2009,04,27,14,51,17.80
2009,04,27,14,52,17.80
2009,04,27,14,53,17.80
2009,04,27,14,54,17.80
2009,04,27,14,55,17.60
2009,04,27,14,56,17.40
2009,04,27,14,57,17.10
2009,04,27,14,58,17.00
2009,04,27,14,59,17.00
2009,04,27,15,00,17.10
2009,04,27,15,01,17.20
2009,04,27,15,02,17.30
2009,04,27,15,03,17.30
2009,04,27,15,04,17.30
2009,04,27,15,05,17.30
2009,04,27,15,06,17.40
2009,04,27,15,07,17.50
2009,04,27,15,08,17.60
2009,04,27,15,09,17.60
2009,04,27,15,10,17.70
2009,04,27,15,11,17.80
2009,04,27,15,12,17.90
2009,04,27,15,13,18.00
2009,04,27,15,14,18.20
2009,04,27,15,15,18.30
2009,04,27,15,16,18.50
2009,04,27,15,17,18.50
2009,04,27,15,18,18.60
2009,04,27,15,19,18.60
2009,04,27,15,20,18.70
2009,04,27,15,21,18.70
2009,04,27,15,22,18.80
2009,04,27,15,23,18.90
2009,04,27,15,24,18.90
2009,04,27,15,25,18.80
2009,04,27,15,26,18.70
2009,04,27,15,27,18.70
2009,04,27,15,28,18.70
2009,04,27,15,29,18.60
2009,04,27,15,30,18.70
2009,04,27,15,31,18.70
2009,04,27,15,32,18.80
2009,04,27,15,33,18.80
2009,04,27,15,34,18.80
2009,04,27,15,35,18.90
2009,04,27,15,36,19.00
2009,04,27,15,37,19.00
2009,04,27,15,38,19.10
2009,04,27,15,39,19.10
2009,04,27,15,40,19.00
2009,04,27,15,41,18.90
2009,04,27,15,42,18.70
2009,04,27,15,43,18.60
2009,04,27,15,44,18.50
2009,04,27,15,45,18.40
2009,04,27,15,46,18.40
2009,04,27,15,47,18.40
2009,04,27,15,48,18.40
2009,04,27,15,49,18.30
2009,04,27,15,50,18.30
2009,04,27,15,51,18.40
2009,04,27,15,52,18.50
2009,04,27,15,53,18.60
2009,04,27,15,54,18.60
2009,04,27,15,55,18.60
2009,04,27,15,56,18.60
2009,04,27,15,57,18.50
2009,04,27,15,58,18.50
2009,04,27,15,59,18.40
2009,04,27,16,00,18.40
2009,04,27,16,01,18.50
2009,04,27,16,02,18.50
2009,04,27,16,03,18.60
2009,04,27,16,04,18.70
2009,04,27,16,05,18.80
2009,04,27,16,06,19.00
2009,04,27,16,07,19.10
2009,04,27,16,08,19.20
2009,04,27,16,09,19.20
2009,04,27,16,10,19.20
2009,04,27,16,11,19.10
2009,04,27,16,12,19.10
2009,04,27,16,13,19.10
2009,04,27,16,14,19.10
2009,04,27,16,15,19.10
2009,04,27,16,16,19.10
2009,04,27,16,17,19.10
2009,04,27,16,18,19.10
2009,04,27,16,19,19.00
2009,04,27,16,20,18.90
2009,04,27,16,21,18.80
2009,04,27,16,22,18.80
2009,04,27,16,23,18.70
2009,04,27,16,24,18.70
2009,04,27,16,25,18.70
2009,04,27,16,26,18.80
2009,04,27,16,27,18.80
2009,04,27,16,28,18.70
2009,04,27,16,29,18.70
2009,04,27,16,30,18.80
2009,04,27,16,31,18.80
2009,04,27,16,32,18.80
2009,04,27,16,33,18.80
2009,04,27,16,34,18.80
2009,04,27,16,35,18.80
2009,04,27,16,36,18.80
2009,04,27,16,37,18.70
2009,04,27,16,38,18.70
2009,04,27,16,39,18.70
2009,04,27,16,40,18.60
2009,04,27,16,41,18.60
2009,04,27,16,42,18.60
2009,04,27,16,43,18.60
2009,04,27,16,44,18.60
2009,04,27,16,45,18.60
2009,04,27,16,46,18.60
2009,04,27,16,47,18.70
2009,04,27,16,48,18.70
2009,04,27,16,49,18.80
2009,04,27,16,50,18.80
2009,04,27,16,51,18.80
2009,04,27,16,52,18.90
2009,04,27,16,53,18.90
2009,04,27,16,54,19.00
2009,04,27,16,55,19.00
2009,04,27,16,56,19.00
2009,04,27,16,57,19.00
2009,04,27,16,58,18.90
2009,04,27,16,59,18.90
2009,04,27,17,00,18.90
2009,04,27,17,01,18.90
2009,04,27,17,02,18.90
2009,04,27,17,03,18.70
2009,04,27,17,04,18.50
2009,04,27,17,05,18.50
2009,04,27,17,06,18.50
2009,04,27,17,07,18.50
2009,04,27,17,08,18.60
2009,04,27,17,09,18.70
2009,04,27,17,10,18.70
2009,04,27,17,11,18.80
2009,04,27,17,12,18.80
2009,04,27,17,13,18.90
2009,04,27,17,14,19.00
2009,04,27,17,15,19.00
2009,04,27,17,16,19.00
2009,04,27,17,17,19.10
2009,04,27,17,18,19.10
2009,04,27,17,19,19.10
2009,04,27,17,20,19.10
2009,04,27,17,21,19.00
2009,04,27,17,22,18.90
2009,04,27,17,23,18.90
2009,04,27,17,24,18.80
2009,04,27,17,25,18.80
2009,04,27,17,26,18.80
2009,04,27,17,27,18.70
2009,04,27,17,28,18.70
2009,04,27,17,29,18.60
2009,04,27,17,30,18.50
2009,04,27,17,31,18.50
2009,04,27,17,32,18.50
2009,04,27,17,33,18.50
2009,04,27,17,34,18.50
2009,04,27,17,35,18.40
2009,04,27,17,36,18.50
2009,04,27,17,37,18.50
2009,04,27,17,38,18.60
2009,04,27,17,39,18.60